Location: Unspecified
(0.0000°N, 0.0000°E)
Time: 21:59:27
(UTC+02:00)

Iridium 12 - Visible Passes

Search period start: 30 August 2015 00:00
Search period end: 09 September 2015 00:00
Orbit: 776 x 779 km, 86.4° (Epoch: 30 August)

Date Brightness Start Highest point End Pass type
(mag) Time Alt. Az. Time Alt. Az. Time Alt. Az.
30 Aug 5.6 20:40:39 10° SSE 20:45:43 54° E 20:50:48 10° NNE visible
31 Aug 8.2 21:49:09 10° SW 21:52:49 18° W 21:56:14 10° NW visible
01 Sep 6.9 21:14:22 10° SSW 21:19:16 41° W 21:24:06 10° NNW visible
02 Sep 5.5 20:40:34 10° S 20:45:48 89° E 20:51:00 10° N visible
03 Sep 8.9 07:36:12 10° ENE 07:38:36 14° E 07:41:24 10° ESE visible
03 Sep 8.8 21:51:25 10° WSW 21:52:59 11° W 21:54:04 10° WNW visible
04 Sep 7.8 21:15:04 10° SW 21:19:23 25° W 21:23:31 10° NW visible
05 Sep 6.3 20:40:45 10° SSW 20:45:52 56° W 20:50:57 10° NNW visible
07 Sep 8.6 21:16:20 10° SW 21:19:31 16° W 21:22:23 10° NW visible
08 Sep 7.4 20:41:13 10° SSW 20:45:57 34° W 20:50:35 10° NNW visible
